Wind_Speed
65 63 62 61 60 60 59 59 58 58 57 57 57 58 57 56 54 52 50 48 47 45 43 41 38 36 34 32 30 28 26 24 23 23 22 22 22 23 26 27 26 25 25
74 72 70 68 66 64 63 63 63 63 63 62 62 62 62 61 60 58 56 53 51 49 47 44 41 39 36 34 32 30 29 26 24 23 23 23 22 23 25 26 27 26 26
74 71 66 61 59 58 58 59 61 63 65 67 67 66 66 66 64 63 60 58 56 53 51 48 45 42 39 36 34 32 30 28 25 24 24 23 22 22 24 26 27 27 27
59 54 48 43 41 39 40 43 46 52 58 64 68 70 71 70 69 66 64 61 59 56 54 51 48 45 42 39 36 34 32 30 27 25 24 23 21 20 22 24 25 26 26
48 43 39 36 34 32 32 32 33 35 40 47 55 64 70 73 73 71 68 64 61 58 55 52 50 47 45 42 38 36 33 31 28 26 24 22 20 18 19 21 22 23 24
45 43 41 40 38 37 35 34 33 32 32 33 37 44 53 62 70 73 72 68 64 60 56 53 51 49 46 44 40 37 35 32 29 26 25 23 20 18 18 18 19 21 21
48 46 46 45 44 43 41 39 37 36 36 35 33 34 36 41 51 62 69 70 67 63 58 55 52 49 46 44 42 39 36 33 31 27 25 23 20 19 18 18 18 18 19
52 52 51 51 49 47 46 44 41 40 38 37 35 33 32 32 34 41 53 62 65 64 60 57 53 50 48 45 43 40 37 35 32 28 25 22 21 20 19 19 18 18 19
52 53 53 53 53 51 49 47 45 42 40 39 37 35 33 31 30 30 35 46 55 60 61 58 55 52 49 45 43 41 38 35 33 29 25 23 21 20 19 19 18 18 18
50 50 50 52 52 51 49 47 46 44 42 40 39 38 35 33 30 28 27 32 42 50 56 58 56 53 50 47 43 41 38 36 33 29 26 23 22 21 20 20 18 18 18
46 45 45 46 48 48 48 46 45 44 42 40 39 38 37 35 32 29 26 26 31 40 47 53 53 51 49 47 44 41 39 36 34 30 26 24 23 22 21 19 18 18 18
41 39 38 39 40 41 42 42 42 42 40 39 39 39 38 37 34 31 28 25 27 33 42 48 51 49 48 46 45 42 39 36 34 30 27 25 24 22 21 20 20 19 19
38 35 33 32 32 34 35 36 37 37 37 37 37 37 37 36 34 32 30 26 26 30 38 46 49 49 47 45 45 43 40 36 33 30 27 26 24 22 21 21 20 20 19
35 30 27 25 25 25 27 29 30 31 32 32 33 34 35 34 33 32 31 27 27 29 36 47 49 48 47 46 44 43 40 37 32 30 28 26 23 21 21 21 21 20 20
34 28 24 21 19 19 19 22 24 26 27 28 29 31 32 32 31 31 30 28 27 29 36 49 50 48 48 46 45 43 40 36 32 30 27 25 22 21 21 21 21 21 20
34 28 23 20 15 12 11 12 16 19 22 24 25 27 29 29 29 29 28 27 27 31 36 48 51 49 47 45 44 42 39 35 33 30 28 25 23 22 22 22 22 22 21
35 29 24 19 14 8 2 5 9 13 16 19 21 23 25 27 27 26 25 25 26 29 35 45 49 48 47 46 43 40 37 35 32 30 28 25 24 24 23 23 23 23 23
36 30 25 20 16 11 7 5 7 9 12 15 18 20 21 23 24 23 23 23 24 27 32 41 47 48 48 45 42 40 37 35 32 29 27 26 25 25 24 24 24 24 24
37 32 27 22 18 15 12 10 10 11 11 13 15 16 18 20 21 20 20 20 22 25 28 37 45 46 45 44 41 38 36 34 31 29 27 26 26 25 25 25 25 25 25
36 33 29 25 21 19 17 15 13 11 10 11 12 13 15 18 19 19 19 19 20 23 26 34 41 41 42 40 38 36 34 33 30 28 27 27 26 26 26 26 26 26 25
35 32 29 26 24 22 20 17 15 13 11 11 11 12 14 17 18 19 20 21 22 24 28 33 37 38 38 37 36 33 32 30 29 28 27 27 26 27 27 26 26 26 25
35 30 27 25 23 21 20 19 18 16 15 14 14 14 17 19 19 21 24 26 27 29 30 32 33 33 35 34 32 30 29 28 28 28 27 27 27 27 27 26 26 26 25
36 32 28 25 23 22 21 20 19 18 18 18 19 20 20 22 24 27 29 30 30 30 30 30 30 30 31 31 29 28 28 27 27 27 27 27 27 26 26 26 25 25 25
36 33 30 26 24 23 22 21 21 21 21 22 23 24 26 28 29 30 31 30 30 30 29 28 28 27 27 27 26 26 25 25 26 26 27 26 26 25 25 25 25 25 25
35 32 30 27 25 24 23 23 23 24 25 25 26 28 30 30 30 30 31 30 29 28 27 26 26 25 25 24 24 24 23 23 24 24 24 24 23 23 24 24 24 24 24
33 31 29 27 26 24 24 23 23 23 24 25 27 28 29 29 29 29 28 27 27 26 25 25 24 24 23 23 22 22 21 21 21 21 21 21 22 22 22 22 23 23 24
Wind_Direction
293 289 285 280 275 271 268 265 263 261 259 257 256 255 254 252 250 249 248 250 251 252 253 255 257 260 263 266 269 271 275 280 285 289 289 280 268 254 244 241 238 236 235
295 292 289 285 280 275 270 265 261 259 257 255 254 253 252 252 251 250 249 249 249 250 251 253 255 257 260 263 265 267 270 275 280 283 284 280 271 257 245 240 238 237 235
298 296 294 290 285 280 274 268 262 258 255 253 251 250 250 250 250 249 249 248 248 248 249 250 252 254 256 259 261 263 265 270 275 278 279 277 272 259 246 240 236 236 237
300 299 296 292 287 282 277 270 264 258 254 251 249 248 247 248 248 248 247 247 246 246 247 248 249 250 252 255 257 258 260 264 270 274 275 272 271 260 246 239 237 236 238
299 297 294 291 288 284 280 275 270 264 258 254 250 247 246 245 245 246 245 245 244 243 244 244 246 247 248 250 252 254 256 259 265 269 271 268 266 258 246 239 237 237 239
294 291 288 286 284 282 279 276 273 269 266 263 258 253 249 246 244 243 243 242 241 241 240 240 241 243 244 245 246 249 251 254 259 264 266 264 259 250 242 237 236 237 239
288 285 282 282 281 279 277 275 271 267 265 265 263 262 259 254 249 244 242 240 239 238 237 237 237 238 240 241 242 245 247 249 254 259 261 258 253 244 239 237 237 237 238
285 281 278 277 276 276 275 274 271 267 264 262 261 259 258 258 256 250 244 239 237 235 234 234 233 234 235 238 239 241 244 246 248 253 254 250 246 241 236 235 235 237 236
287 282 277 275 274 272 272 270 269 266 263 259 256 254 254 254 256 255 248 240 235 232 231 230 230 231 232 234 236 238 240 242 244 248 248 245 242 237 234 234 235 238 237
291 285 279 274 272 270 268 266 265 263 260 256 252 250 250 250 251 252 251 243 234 229 226 226 227 228 229 231 233 235 235 236 238 241 242 241 237 233 232 231 233 237 239
299 292 284 277 272 268 265 263 261 259 256 252 249 247 245 245 245 246 247 246 234 224 220 219 219 222 225 227 229 230 230 231 233 236 236 236 234 232 230 232 235 237 240
309 301 291 282 275 269 264 260 257 255 252 248 245 242 240 239 240 242 244 246 238 223 215 212 209 213 219 222 224 225 226 227 228 231 231 231 230 230 229 232 234 234 234
318 310 300 289 279 272 265 260 255 251 247 244 240 237 235 234 235 236 237 240 233 222 212 204 201 204 209 216 219 220 220 221 222 224 226 227 227 227 227 227 229 229 228
329 321 313 300 287 277 266 257 251 245 241 237 234 231 230 228 228 229 230 232 229 221 210 198 195 198 202 209 213 214 215 215 216 219 222 224 225 225 225 227 226 225 223
343 336 329 319 305 286 268 254 245 237 232 229 227 225 224 223 222 223 224 226 226 218 208 197 192 193 198 204 208 209 209 210 214 218 221 222 222 221 222 222 220 217 215
354 351 347 340 328 305 272 246 231 225 221 219 218 218 216 215 215 217 219 222 220 214 207 198 192 189 193 198 203 205 206 208 211 214 218 218 217 217 217 215 214 211 209
4 3 3 2 0 356 311 215 209 207 205 206 206 206 206 207 209 211 215 216 214 210 205 199 191 188 190 193 197 200 202 205 208 210 213 214 213 213 212 211 210 208 207
13 14 15 19 26 39 64 113 150 166 178 185 188 192 196 200 204 208 210 209 208 205 201 197 190 186 188 190 194 197 199 202 205 207 208 209 209 209 208 207 205 205 205
19 22 25 32 40 53 69 92 115 132 146 161 173 183 190 193 196 197 196 197 200 200 195 193 188 185 185 188 192 195 197 199 201 203 204 205 206 205 204 203 203 204 205
24 29 35 41 50 61 72 84 96 112 129 146 159 169 175 177 179 180 180 182 186 185 183 184 182 181 184 186 189 192 194 196 198 200 201 202 201 201 202 203 204 206 208
26 32 39 46 54 63 69 77 82 91 108 127 142 151 159 164 165 163 161 161 161 161 164 174 176 177 180 184 186 187 189 191 194 197 198 198 198 200 201 202 205 208 211
28 33 39 46 52 58 63 68 75 82 90 101 114 127 138 145 147 148 149 149 148 149 154 163 168 173 176 178 180 182 185 188 191 193 194 195 196 198 199 202 207 212 216
34 39 44 47 51 57 62 67 73 78 83 94 105 112 123 132 134 135 136 136 137 142 148 154 161 166 170 173 176 179 181 184 187 189 190 193 195 198 201 205 210 215 221
37 42 46 51 56 60 65 70 75 81 87 96 103 110 117 123 125 127 130 133 135 139 143 149 155 160 165 170 173 176 179 181 184 187 189 192 196 200 206 211 215 221 227
38 42 46 52 59 64 69 75 80 85 90 96 103 108 112 117 121 124 126 129 133 137 142 147 152 156 160 164 168 170 173 176 180 185 190 195 201 208 213 218 224 229 235
38 42 47 53 60 66 72 78 84 89 95 101 106 110 112 116 119 122 124 127 132 137 143 148 151 154 158 162 165 168 172 178 184 189 196 202 209 215 221 227 232 238 243
Height
5705 5704 5702 5700 5699 5698 5699 5699 5701 5702 5704 5706 5709 5711 5714 5717 5720 5723 5726 5729 5732 5736 5739 5742 5744 5747 5749 5750 5752 5753 5754 5754 5753 5751 5749 5747 5746 5747 5748 5750 5753 5756 5759
5677 5674 5672 5671 5670 5671 5672 5674 5676 5678 5681 5684 5687 5691 5694 5697 5701 5706 5710 5714 5718 5722 5726 5730 5734 5737 5740 5742 5743 5745 5746 5747 5747 5745 5743 5741 5740 5741 5742 5744 5747 5750 5753
5653 5648 5645 5642 5641 5641 5643 5645 5648 5651 5655 5659 5663 5668 5672 5676 5681 5686 5692 5697 5702 5707 5712 5717 5721 5725 5729 5732 5734 5736 5738 5739 5740 5739 5738 5736 5734 5734 5735 5738 5740 5744 5747
5634 5629 5626 5623 5621 5620 5620 5620 5622 5625 5628 5632 5637 5642 5648 5653 5659 5664 5671 5678 5685 5691 5697 5703 5708 5713 5718 5722 5725 5727 5730 5731 5732 5732 5732 5730 5729 5728 5729 5731 5734 5738 5741
5622 5618 5614 5611 5610 5608 5607 5606 5605 5606 5607 5609 5613 5617 5623 5629 5636 5642 5649 5658 5666 5674 5681 5688 5694 5700 5705 5710 5714 5718 5721 5723 5725 5725 5725 5724 5724 5724 5724 5726 5729 5732 5734
5611 5606 5602 5599 5598 5596 5595 5594 5594 5594 5594 5594 5595 5597 5601 5605 5611 5619 5627 5637 5646 5655 5664 5672 5679 5687 5693 5698 5703 5708 5712 5715 5717 5718 5719 5719 5718 5719 5720 5722 5724 5726 5729
5597 5592 5588 5585 5583 5581 5581 5581 5581 5581 5581 5582 5583 5584 5586 5588 5591 5597 5605 5615 5625 5636 5646 5656 5664 5673 5680 5686 5692 5697 5702 5706 5709 5711 5712 5713 5713 5714 5715 5717 5719 5721 5723
5579 5575 5571 5568 5566 5565 5564 5564 5565 5566 5567 5569 5570 5572 5574 5576 5578 5580 5585 5593 5604 5616 5628 5639 5649 5658 5667 5674 5681 5687 5692 5697 5700 5703 5705 5706 5707 5708 5709 5711 5713 5715 5717
5559 5554 5551 5548 5547 5546 5546 5547 5548 5549 5552 5554 5557 5560 5563 5565 5567 5569 5571 5577 5586 5597 5609 5622 5633 5644 5654 5662 5669 5676 5682 5687 5691 5695 5698 5700 5701 5702 5704 5706 5708 5710 5712
5538 5533 5530 5527 5526 5526 5527 5529 5530 5533 5536 5539 5543 5547 5551 5554 5557 5560 5562 5565 5572 5581 5593 5606 5618 5630 5640 5649 5658 5665 5672 5678 5683 5687 5690 5693 5695 5697 5698 5701 5703 5704 5706
5518 5513 5509 5507 5506 5506 5508 5510 5513 5516 5520 5524 5529 5534 5538 5543 5547 5551 5554 5557 5560 5568 5578 5590 5603 5616 5627 5637 5646 5654 5661 5668 5674 5679 5683 5686 5689 5691 5693 5695 5697 5699 5701
5502 5495 5491 5488 5487 5488 5490 5492 5496 5500 5504 5509 5514 5520 5525 5531 5536 5541 5546 5549 5553 5558 5567 5578 5591 5604 5615 5625 5635 5644 5652 5659 5666 5671 5676 5680 5682 5685 5687 5689 5691 5694 5696
5490 5482 5477 5473 5472 5472 5474 5476 5480 5485 5490 5495 5501 5507 5513 5519 5526 5531 5537 5541 5545 5550 5557 5568 5580 5593 5603 5614 5624 5634 5643 5651 5658 5664 5669 5672 5676 5679 5681 5684 5686 5689 5692
5480 5472 5466 5462 5460 5459 5460 5463 5467 5472 5477 5483 5489 5496 5502 5509 5516 5522 5528 5533 5538 5542 5549 5558 5570 5582 5593 5605 5615 5625 5634 5642 5650 5656 5661 5665 5669 5673 5676 5679 5682 5684 5687
5474 5466 5460 5455 5452 5450 5451 5453 5457 5462 5467 5473 5480 5486 5493 5500 5507 5513 5519 5525 5530 5535 5541 5550 5561 5573 5584 5596 5607 5617 5626 5635 5642 5649 5654 5659 5663 5667 5671 5674 5677 5680 5683
5473 5464 5457 5452 5448 5445 5445 5447 5450 5455 5460 5466 5472 5479 5486 5493 5499 5506 5512 5518 5523 5529 5535 5544 5554 5566 5577 5589 5600 5610 5620 5628 5635 5642 5648 5653 5657 5661 5665 5669 5673 5676 5680
5474 5465 5458 5452 5448 5445 5444 5446 5449 5453 5457 5463 5468 5474 5481 5488 5494 5501 5506 5512 5517 5523 5529 5538 5548 5560 5572 5583 5594 5605 5614 5622 5629 5636 5642 5647 5652 5656 5661 5665 5669 5672 5676
5479 5470 5462 5456 5452 5449 5448 5449 5451 5454 5458 5463 5468 5473 5479 5485 5491 5497 5502 5507 5513 5519 5525 5534 5545 5556 5568 5579 5590 5600 5608 5616 5624 5630 5637 5642 5647 5652 5656 5661 5665 5669 5672
5485 5476 5469 5463 5459 5456 5455 5455 5457 5459 5462 5466 5470 5474 5479 5484 5489 5494 5500 5505 5511 5517 5524 5533 5543 5555 5566 5576 5586 5596 5604 5612 5619 5626 5632 5637 5643 5648 5652 5656 5661 5665 5669
5494 5486 5478 5473 5468 5466 5464 5464 5464 5466 5467 5470 5473 5476 5480 5485 5489 5494 5499 5505 5510 5517 5524 5533 5544 5555 5566 5576 5585 5594 5602 5609 5616 5622 5628 5633 5639 5644 5649 5653 5657 5662 5666
5503 5495 5489 5484 5480 5477 5475 5473 5473 5473 5473 5475 5477 5479 5482 5486 5491 5496 5501 5506 5512 5519 5528 5537 5547 5557 5567 5577 5585 5593 5600 5607 5613 5619 5625 5630 5636 5641 5646 5650 5654 5658 5662
5512 5505 5499 5495 5491 5488 5486 5484 5482 5481 5481 5481 5482 5484 5487 5491 5495 5499 5505 5511 5517 5525 5533 5542 5551 5560 5569 5578 5585 5592 5599 5605 5611 5617 5622 5628 5633 5638 5643 5648 5652 5655 5658
5522 5515 5510 5505 5501 5498 5496 5494 5492 5490 5489 5489 5490 5491 5494 5497 5501 5506 5512 5518 5524 5532 5540 5548 5556 5564 5572 5579 5586 5592 5598 5604 5610 5615 5621 5626 5631 5636 5641 5645 5648 5651 5654
5534 5527 5521 5516 5512 5509 5506 5504 5502 5501 5500 5499 5500 5501 5503 5506 5511 5516 5521 5527 5533 5540 5547 5554 5561 5568 5575 5581 5587 5593 5599 5604 5609 5615 5620 5625 5630 5634 5638 5642 5645 5647 5649
5546 5539 5533 5528 5524 5520 5518 5515 5514 5512 5511 5511 5512 5513 5516 5518 5522 5526 5531 5537 5542 5549 5555 5561 5567 5573 5579 5584 5590 5595 5600 5605 5610 5615 5620 5624 5628 5632 5635 5638 5641 5643 5645
5556 5550 5545 5539 5535 5532 5529 5527 5526 5525 5524 5524 5525 5526 5528 5531 5534 5537 5541 5546 5551 5556 5562 5567 5572 5577 5583 5588 5593 5598 5602 5607 5611 5615 5620 5623 5627 5630 5632 5634 5636 5638 5639